Year,Month,Day,Hour,Minute,Value (Times are PST for windgust in km/hr)
2017,05,23,00,59,3.20
2017,05,23,01,00,3.20
2017,05,23,01,10,1.60
2017,05,23,01,34,1.60
2017,05,23,02,53,1.60
2017,05,23,03,00,4.80
2017,05,23,03,01,4.80
2017,05,23,03,02,3.20
2017,05,23,03,03,6.40
2017,05,23,03,04,6.40
2017,05,23,03,05,3.20
2017,05,23,03,06,3.20
2017,05,23,03,07,1.60
2017,05,23,03,08,3.20
2017,05,23,03,09,4.80
2017,05,23,03,10,3.20
2017,05,23,03,20,1.60
2017,05,23,03,21,4.80
2017,05,23,03,23,1.60
2017,05,23,03,24,4.80
2017,05,23,03,45,3.20
2017,05,23,03,46,3.20
2017,05,23,07,15,4.80
2017,05,23,07,30,3.20
2017,05,23,07,32,3.20
2017,05,23,07,33,1.60
2017,05,23,07,34,9.60
2017,05,23,07,35,8.10
2017,05,23,07,36,6.40
2017,05,23,07,37,8.10
2017,05,23,07,38,8.10
2017,05,23,07,39,3.20
2017,05,23,07,40,8.10
2017,05,23,07,41,8.10
2017,05,23,07,42,6.40
2017,05,23,07,43,8.10
2017,05,23,07,44,4.80
2017,05,23,07,45,9.60
2017,05,23,07,46,8.10
2017,05,23,07,47,8.10
2017,05,23,07,48,8.10
2017,05,23,07,49,8.10
2017,05,23,07,50,4.80
2017,05,23,07,51,3.20
2017,05,23,07,52,8.10
2017,05,23,07,53,6.40
2017,05,23,07,54,8.10
2017,05,23,07,55,11.30
2017,05,23,07,56,9.60
2017,05,23,07,57,8.10
2017,05,23,07,58,11.30
2017,05,23,07,59,11.30
2017,05,23,08,00,14.50
2017,05,23,08,01,9.60
2017,05,23,08,02,4.80
2017,05,23,08,03,6.40
2017,05,23,08,04,14.50
2017,05,23,08,05,11.30
2017,05,23,08,06,8.10
2017,05,23,08,07,12.90
2017,05,23,08,08,9.60
2017,05,23,08,09,11.30
2017,05,23,08,10,9.60
2017,05,23,08,11,6.40
2017,05,23,08,12,8.10
2017,05,23,08,13,16.10
2017,05,23,08,14,17.70
2017,05,23,08,15,11.30
2017,05,23,08,16,8.10
2017,05,23,08,17,8.10
2017,05,23,08,18,8.10
2017,05,23,08,19,9.60
2017,05,23,08,20,9.60
2017,05,23,08,21,8.10
2017,05,23,08,22,4.80
2017,05,23,08,23,4.80
2017,05,23,08,25,4.80
2017,05,23,08,26,4.80
2017,05,23,08,27,8.10
2017,05,23,08,28,3.20
2017,05,23,08,32,1.60
2017,05,23,08,42,1.60
2017,05,23,08,43,1.60
2017,05,23,08,44,1.60
2017,05,23,08,45,3.20
2017,05,23,08,47,1.60
2017,05,23,08,48,1.60
2017,05,23,08,49,1.60
2017,05,23,08,50,4.80
2017,05,23,08,51,8.10
2017,05,23,08,52,1.60
2017,05,23,08,55,6.40
2017,05,23,08,56,9.60
2017,05,23,08,57,4.80
2017,05,23,08,58,8.10
2017,05,23,08,59,8.10
2017,05,23,09,00,8.10
2017,05,23,09,01,4.80
2017,05,23,09,02,4.80
2017,05,23,09,03,3.20
2017,05,23,09,04,6.40
2017,05,23,09,05,4.80
2017,05,23,09,06,1.60
2017,05,23,09,07,8.10
2017,05,23,09,10,8.10
2017,05,23,09,11,4.80
2017,05,23,09,12,6.40
2017,05,23,09,13,6.40
2017,05,23,09,15,6.40
2017,05,23,09,16,6.40
2017,05,23,09,20,1.60
2017,05,23,09,21,6.40
2017,05,23,09,22,8.10
2017,05,23,09,23,4.80
2017,05,23,09,27,1.60
2017,05,23,09,31,4.80
2017,05,23,09,32,6.40
2017,05,23,09,33,3.20
2017,05,23,09,34,1.60
2017,05,23,09,35,8.10
2017,05,23,09,36,3.20
2017,05,23,09,37,1.60
2017,05,23,09,38,1.60
2017,05,23,09,43,1.60
2017,05,23,09,44,6.40
2017,05,23,09,45,4.80
2017,05,23,09,47,8.10
2017,05,23,09,48,6.40
2017,05,23,09,49,1.60
2017,05,23,09,50,4.80
2017,05,23,09,51,4.80
2017,05,23,09,52,11.30
2017,05,23,09,53,6.40
2017,05,23,09,54,8.10
2017,05,23,09,55,8.10
2017,05,23,09,56,6.40
2017,05,23,09,57,1.60
2017,05,23,09,59,6.40
2017,05,23,10,00,8.10
2017,05,23,10,01,11.30
2017,05,23,10,02,4.80
2017,05,23,10,04,1.60
2017,05,23,10,07,4.80
2017,05,23,10,08,3.20
2017,05,23,10,09,3.20
2017,05,23,10,10,3.20
2017,05,23,10,11,1.60
2017,05,23,10,21,4.80
2017,05,23,10,22,1.60
2017,05,23,10,23,8.10
2017,05,23,10,24,6.40
2017,05,23,10,28,6.40
2017,05,23,10,29,8.10
2017,05,23,10,30,8.10
2017,05,23,10,31,9.60
2017,05,23,10,32,9.60
2017,05,23,10,33,8.10
2017,05,23,10,34,4.80
2017,05,23,10,35,8.10
2017,05,23,10,36,6.40
2017,05,23,10,37,9.60
2017,05,23,10,38,6.40
2017,05,23,10,39,6.40
2017,05,23,10,40,11.30
2017,05,23,10,41,11.30
2017,05,23,10,42,9.60
2017,05,23,10,43,8.10
2017,05,23,10,44,9.60
2017,05,23,10,45,8.10
2017,05,23,10,46,6.40
2017,05,23,10,47,6.40
2017,05,23,10,48,4.80
2017,05,23,10,49,4.80
2017,05,23,10,50,4.80
2017,05,23,10,51,11.30
2017,05,23,10,52,8.10
2017,05,23,10,53,9.60
2017,05,23,10,54,3.20
2017,05,23,10,55,8.10
2017,05,23,10,56,9.60
2017,05,23,10,57,4.80
2017,05,23,10,58,6.40
2017,05,23,10,59,8.10
2017,05,23,11,00,6.40
2017,05,23,11,02,6.40
2017,05,23,11,03,8.10
2017,05,23,11,04,4.80
2017,05,23,11,05,4.80
2017,05,23,11,06,6.40
2017,05,23,11,07,6.40
2017,05,23,11,08,6.40
2017,05,23,11,09,8.10
2017,05,23,11,10,4.80
2017,05,23,11,11,6.40
2017,05,23,11,12,6.40
2017,05,23,11,13,6.40
2017,05,23,11,14,1.60
2017,05,23,11,15,8.10
2017,05,23,11,16,8.10
2017,05,23,11,17,9.60
2017,05,23,11,18,3.20
2017,05,23,11,20,8.10
2017,05,23,11,21,9.60
2017,05,23,11,23,4.80
2017,05,23,11,24,4.80
2017,05,23,11,27,1.60
2017,05,23,11,29,1.60
2017,05,23,11,30,4.80
2017,05,23,11,31,8.10
2017,05,23,11,32,6.40
2017,05,23,11,33,4.80
2017,05,23,11,34,1.60
2017,05,23,11,36,1.60
2017,05,23,11,38,1.60
2017,05,23,11,40,1.60
2017,05,23,11,41,8.10
2017,05,23,11,42,6.40
2017,05,23,11,43,1.60
2017,05,23,11,44,1.60
2017,05,23,11,45,6.40
2017,05,23,11,46,6.40
2017,05,23,11,48,4.80
2017,05,23,11,49,3.20
2017,05,23,11,50,6.40
2017,05,23,11,51,8.10
2017,05,23,11,52,3.20
2017,05,23,11,54,8.10
2017,05,23,11,55,8.10
2017,05,23,11,56,9.60
2017,05,23,11,57,3.20
2017,05,23,11,59,6.40
2017,05,23,12,00,8.10
2017,05,23,12,01,8.10
2017,05,23,12,02,3.20
2017,05,23,12,04,4.80
2017,05,23,12,05,4.80
2017,05,23,12,07,6.40
2017,05,23,12,08,6.40
2017,05,23,12,09,8.10
2017,05,23,12,10,6.40
2017,05,23,12,11,9.60
2017,05,23,12,12,1.60
2017,05,23,12,13,8.10
2017,05,23,12,14,6.40
2017,05,23,12,15,1.60
2017,05,23,12,18,4.80
2017,05,23,12,19,4.80
2017,05,23,12,20,4.80
2017,05,23,12,21,3.20
2017,05,23,12,22,3.20
2017,05,23,12,23,1.60
2017,05,23,12,26,1.60
2017,05,23,12,28,1.60
2017,05,23,12,30,6.40
2017,05,23,12,31,4.80
2017,05,23,12,32,11.30
2017,05,23,12,33,8.10
2017,05,23,12,34,6.40
2017,05,23,12,36,4.80
2017,05,23,12,37,8.10
2017,05,23,12,38,11.30
2017,05,23,12,39,9.60
2017,05,23,12,40,11.30
2017,05,23,12,41,12.90
2017,05,23,12,42,14.50
2017,05,23,12,43,16.10
2017,05,23,12,44,14.50
2017,05,23,12,45,9.60
2017,05,23,12,46,3.20
2017,05,23,12,47,6.40
2017,05,23,12,50,11.30
2017,05,23,12,51,24.20
2017,05,23,12,52,9.60
2017,05,23,12,53,16.10
2017,05,23,12,54,25.70
2017,05,23,12,55,29.00
2017,05,23,12,56,29.00
2017,05,23,12,57,16.10
2017,05,23,12,58,24.20
2017,05,23,12,59,29.00
2017,05,23,13,00,29.00
2017,05,23,13,01,27.40
2017,05,23,13,02,27.40
2017,05,23,13,03,37.00
2017,05,23,13,04,25.70
2017,05,23,13,05,20.90
2017,05,23,13,06,20.90
2017,05,23,13,07,22.50
2017,05,23,13,08,14.50
2017,05,23,13,09,29.00
2017,05,23,13,10,6.40
2017,05,23,13,11,29.00
2017,05,23,13,12,37.00
2017,05,23,13,13,24.20
2017,05,23,13,14,25.70
2017,05,23,13,15,24.20
2017,05,23,13,16,17.70
2017,05,23,13,17,19.30
2017,05,23,13,18,33.80
2017,05,23,13,19,16.10
2017,05,23,13,20,30.60
2017,05,23,13,21,17.70
2017,05,23,13,22,16.10
2017,05,23,13,23,19.30
2017,05,23,13,24,20.90
2017,05,23,13,25,17.70
2017,05,23,13,26,4.80
2017,05,23,13,27,33.80
2017,05,23,13,28,4.80
2017,05,23,13,29,17.70
2017,05,23,13,30,1.60
2017,05,23,13,31,1.60
2017,05,23,13,32,17.70
2017,05,23,13,33,19.30
2017,05,23,13,34,3.20
2017,05,23,13,35,9.60
2017,05,23,13,36,1.60
2017,05,23,13,37,4.80
2017,05,23,13,38,1.60
2017,05,23,13,39,1.60
2017,05,23,13,40,1.60
2017,05,23,13,41,11.30
2017,05,23,13,42,17.70
2017,05,23,13,43,17.70
2017,05,23,13,44,4.80
2017,05,23,13,45,1.60
2017,05,23,13,46,1.60
2017,05,23,13,48,22.50
2017,05,23,13,49,17.70
2017,05,23,13,50,4.80
2017,05,23,13,51,4.80
2017,05,23,13,52,19.30
2017,05,23,13,53,25.70
2017,05,23,13,54,6.40
2017,05,23,13,55,4.80
2017,05,23,13,56,19.30
2017,05,23,13,57,25.70
2017,05,23,13,58,20.90
2017,05,23,13,59,17.70
2017,05,23,14,00,8.10
2017,05,23,14,01,3.20
2017,05,23,14,02,3.20
2017,05,23,14,03,22.50
2017,05,23,14,04,20.90
2017,05,23,14,05,17.70
2017,05,23,14,06,14.50
2017,05,23,14,07,24.20
2017,05,23,14,08,30.60
2017,05,23,14,09,33.80
2017,05,23,14,10,25.70
2017,05,23,14,11,19.30
2017,05,23,14,12,9.60
2017,05,23,14,13,22.50
2017,05,23,14,14,22.50
2017,05,23,14,15,17.70
2017,05,23,14,16,9.60
2017,05,23,14,17,1.60
2017,05,23,14,19,27.40
2017,05,23,14,20,1.60
2017,05,23,14,21,1.60
2017,05,23,14,22,20.90
2017,05,23,14,23,16.10
2017,05,23,14,24,29.00
2017,05,23,14,25,30.60
2017,05,23,14,26,16.10
2017,05,23,14,27,32.20
2017,05,23,14,28,24.20
2017,05,23,14,29,25.70
2017,05,23,14,30,16.10
2017,05,23,14,31,19.30
2017,05,23,14,32,4.80
2017,05,23,14,33,16.10
2017,05,23,14,34,14.50
2017,05,23,14,35,20.90
2017,05,23,14,36,20.90
2017,05,23,14,37,1.60
2017,05,23,14,38,11.30
2017,05,23,14,39,1.60
2017,05,23,14,40,22.50
2017,05,23,14,41,17.70
2017,05,23,14,42,6.40
2017,05,23,14,43,22.50
2017,05,23,14,44,24.20
2017,05,23,14,45,20.90
2017,05,23,14,46,6.40
2017,05,23,14,47,30.60
2017,05,23,14,48,20.90
2017,05,23,14,49,4.80
2017,05,23,14,50,3.20
2017,05,23,14,51,20.90
2017,05,23,14,52,17.70
2017,05,23,14,53,14.50
2017,05,23,14,54,30.60
2017,05,23,14,55,27.40
2017,05,23,14,56,29.00
2017,05,23,14,57,22.50
2017,05,23,14,58,24.20
2017,05,23,14,59,29.00
2017,05,23,15,00,33.80
2017,05,23,15,01,27.40
2017,05,23,15,02,29.00
2017,05,23,15,03,29.00
2017,05,23,15,04,22.50
2017,05,23,15,05,25.70
2017,05,23,15,06,33.80
2017,05,23,15,07,25.70
2017,05,23,15,08,27.40
2017,05,23,15,09,27.40
2017,05,23,15,10,17.70
2017,05,23,15,11,20.90
2017,05,23,15,12,25.70
2017,05,23,15,13,11.30
2017,05,23,15,14,22.50
2017,05,23,15,15,9.60
2017,05,23,15,16,27.40
2017,05,23,15,17,29.00
2017,05,23,15,18,19.30
2017,05,23,15,19,11.30
2017,05,23,15,20,11.30
2017,05,23,15,21,4.80
2017,05,23,15,22,24.20
2017,05,23,15,23,14.50
2017,05,23,15,24,17.70
2017,05,23,15,25,6.40
2017,05,23,15,26,8.10
2017,05,23,15,27,3.20
2017,05,23,15,28,4.80
2017,05,23,15,29,1.60
2017,05,23,15,30,6.40
2017,05,23,15,31,16.10
2017,05,23,15,32,11.30
2017,05,23,15,33,12.90
2017,05,23,15,34,4.80
2017,05,23,15,35,22.50
2017,05,23,15,36,20.90
2017,05,23,15,37,20.90
2017,05,23,15,38,30.60
2017,05,23,15,39,17.70
2017,05,23,15,40,16.10
2017,05,23,15,41,8.10
2017,05,23,15,42,19.30
2017,05,23,15,43,12.90
2017,05,23,15,44,27.40
2017,05,23,15,45,25.70
2017,05,23,15,46,30.60
2017,05,23,15,47,32.20
2017,05,23,15,48,25.70
2017,05,23,15,49,37.00
2017,05,23,15,50,33.80
2017,05,23,15,51,20.90
2017,05,23,15,52,20.90
2017,05,23,15,53,17.70
2017,05,23,15,54,22.50
2017,05,23,15,55,37.00
2017,05,23,15,56,33.80
2017,05,23,15,57,20.90
2017,05,23,15,58,11.30
2017,05,23,15,59,16.10
2017,05,23,16,00,22.50
2017,05,23,16,01,20.90
2017,05,23,16,02,35.40
2017,05,23,16,03,22.50
2017,05,23,16,04,38.60
2017,05,23,16,05,35.40
2017,05,23,16,06,24.20
2017,05,23,16,07,32.20
2017,05,23,16,08,29.00
2017,05,23,16,09,27.40
2017,05,23,16,10,19.30
2017,05,23,16,11,33.80
2017,05,23,16,12,30.60
2017,05,23,16,13,19.30
2017,05,23,16,14,30.60
2017,05,23,16,15,30.60
2017,05,23,16,16,19.30
2017,05,23,16,17,16.10
2017,05,23,16,18,14.50
2017,05,23,16,19,25.70
2017,05,23,16,20,19.30
2017,05,23,16,21,16.10
2017,05,23,16,22,24.20
2017,05,23,16,23,29.00
2017,05,23,16,24,22.50
2017,05,23,16,25,25.70
2017,05,23,16,26,24.20
2017,05,23,16,27,17.70
2017,05,23,16,28,38.60
2017,05,23,16,29,11.30
2017,05,23,16,30,16.10
2017,05,23,16,31,32.20
2017,05,23,16,32,16.10
2017,05,23,16,33,16.10
2017,05,23,16,34,25.70
2017,05,23,16,35,14.50
2017,05,23,16,36,22.50
2017,05,23,16,37,37.00
2017,05,23,16,38,22.50
2017,05,23,16,39,30.60
2017,05,23,16,40,37.00
2017,05,23,16,41,29.00
2017,05,23,16,42,37.00
2017,05,23,16,43,32.20
2017,05,23,16,44,33.80
2017,05,23,16,45,30.60
2017,05,23,16,46,20.90
2017,05,23,16,47,30.60
2017,05,23,16,48,38.60
2017,05,23,16,49,38.60
2017,05,23,16,50,20.90
2017,05,23,16,51,33.80
2017,05,23,16,52,25.70
2017,05,23,16,53,29.00
2017,05,23,16,54,33.80
2017,05,23,16,55,30.60
2017,05,23,16,56,16.10
2017,05,23,16,57,41.80
2017,05,23,16,58,41.80
2017,05,23,16,59,19.30
2017,05,23,17,00,29.00
2017,05,23,17,01,24.20
2017,05,23,17,02,25.70
2017,05,23,17,03,29.00
2017,05,23,17,04,32.20
2017,05,23,17,05,24.20
2017,05,23,17,06,17.70
2017,05,23,17,07,11.30
2017,05,23,17,08,14.50
2017,05,23,17,09,9.60
2017,05,23,17,10,25.70
2017,05,23,17,11,22.50
2017,05,23,17,12,27.40
2017,05,23,17,13,37.00
2017,05,23,17,14,37.00
2017,05,23,17,15,41.80
2017,05,23,17,16,17.70
2017,05,23,17,17,38.60
2017,05,23,17,18,32.20
2017,05,23,17,19,30.60
2017,05,23,17,20,19.30
2017,05,23,17,21,38.60
2017,05,23,17,22,24.20
2017,05,23,17,23,24.20
2017,05,23,17,24,27.40
2017,05,23,17,25,46.70
2017,05,23,17,26,45.10
2017,05,23,17,27,24.20
2017,05,23,17,28,30.60
2017,05,23,17,29,25.70
2017,05,23,17,30,8.10
2017,05,23,17,31,35.40
2017,05,23,17,32,41.80
2017,05,23,17,33,38.60
2017,05,23,17,34,38.60
2017,05,23,17,35,46.70
2017,05,23,17,36,27.40
2017,05,23,17,37,40.20
2017,05,23,17,38,32.20
2017,05,23,17,39,35.40
2017,05,23,17,40,33.80
2017,05,23,17,41,49.90
2017,05,23,17,42,20.90
2017,05,23,17,43,30.60
2017,05,23,17,44,25.70
2017,05,23,17,45,29.00
2017,05,23,17,46,22.50
2017,05,23,17,47,37.00
2017,05,23,17,48,29.00
2017,05,23,17,49,41.80
2017,05,23,17,50,27.40
2017,05,23,17,51,32.20
2017,05,23,17,52,27.40
2017,05,23,17,53,35.40
2017,05,23,17,54,20.90
2017,05,23,17,55,24.20
2017,05,23,17,56,24.20
2017,05,23,17,57,27.40
2017,05,23,17,58,22.50
2017,05,23,17,59,16.10
2017,05,23,18,00,17.70
2017,05,23,18,01,30.60
2017,05,23,18,02,30.60
2017,05,23,18,03,30.60
2017,05,23,18,04,30.60
2017,05,23,18,05,29.00
2017,05,23,18,06,29.00
2017,05,23,18,07,25.70
2017,05,23,18,08,38.60
2017,05,23,18,09,35.40
2017,05,23,18,10,30.60
2017,05,23,18,11,24.20
2017,05,23,18,12,25.70
2017,05,23,18,13,16.10
2017,05,23,18,14,11.30
2017,05,23,18,15,11.30
2017,05,23,18,16,11.30
2017,05,23,18,17,17.70
2017,05,23,18,18,14.50
2017,05,23,18,19,8.10
2017,05,23,18,20,6.40
2017,05,23,18,21,4.80
2017,05,23,18,22,8.10
2017,05,23,18,23,29.00
2017,05,23,18,24,24.20
2017,05,23,18,25,25.70
2017,05,23,18,26,22.50
2017,05,23,18,27,38.60
2017,05,23,18,28,40.20
2017,05,23,18,29,19.30
2017,05,23,18,30,33.80
2017,05,23,18,31,29.00
2017,05,23,18,32,19.30
2017,05,23,18,33,9.60
2017,05,23,18,34,27.40
2017,05,23,18,35,16.10
2017,05,23,18,36,27.40
2017,05,23,18,37,8.10
2017,05,23,18,38,20.90
2017,05,23,18,39,29.00
2017,05,23,18,40,35.40
2017,05,23,18,41,30.60
2017,05,23,18,42,27.40
2017,05,23,18,43,8.10
2017,05,23,18,44,35.40
2017,05,23,18,45,27.40
2017,05,23,18,46,22.50
2017,05,23,18,47,40.20
2017,05,23,18,48,43.50
2017,05,23,18,49,29.00
2017,05,23,18,50,22.50
2017,05,23,18,51,25.70
2017,05,23,18,52,24.20
2017,05,23,18,53,12.90
2017,05,23,18,54,14.50
2017,05,23,18,55,32.20
2017,05,23,18,56,8.10
2017,05,23,18,57,6.40
2017,05,23,18,58,11.30
2017,05,23,18,59,19.30
2017,05,23,19,00,16.10
2017,05,23,19,01,35.40
2017,05,23,19,02,17.70
2017,05,23,19,03,32.20
2017,05,23,19,04,8.10
2017,05,23,19,05,27.40
2017,05,23,19,06,22.50
2017,05,23,19,07,20.90
2017,05,23,19,08,19.30
2017,05,23,19,09,27.40
2017,05,23,19,10,22.50
2017,05,23,19,11,46.70
2017,05,23,19,12,22.50
2017,05,23,19,13,27.40
2017,05,23,19,14,20.90
2017,05,23,19,15,41.80
2017,05,23,19,16,32.20
2017,05,23,19,17,30.60
2017,05,23,19,18,32.20
2017,05,23,19,19,20.90
2017,05,23,19,20,33.80
2017,05,23,19,21,32.20
2017,05,23,19,22,22.50
2017,05,23,19,23,11.30
2017,05,23,19,24,29.00
2017,05,23,19,25,33.80
2017,05,23,19,26,33.80
2017,05,23,19,27,24.20
2017,05,23,19,28,37.00
2017,05,23,19,29,32.20
2017,05,23,19,30,40.20
2017,05,23,19,31,30.60
2017,05,23,19,32,30.60
2017,05,23,19,33,35.40
2017,05,23,19,34,24.20
2017,05,23,19,35,32.20
2017,05,23,19,36,27.40
2017,05,23,19,37,33.80
2017,05,23,19,38,35.40
2017,05,23,19,39,35.40
2017,05,23,19,40,24.20
2017,05,23,19,41,27.40
2017,05,23,19,42,38.60
2017,05,23,19,43,38.60
2017,05,23,19,44,37.00
2017,05,23,19,45,33.80
2017,05,23,19,46,29.00
2017,05,23,19,47,17.70
2017,05,23,19,48,14.50
2017,05,23,19,49,8.10
2017,05,23,19,50,33.80
2017,05,23,19,51,30.60
2017,05,23,19,52,27.40
2017,05,23,19,53,25.70
2017,05,23,19,54,33.80
2017,05,23,19,55,29.00
2017,05,23,19,56,38.60
2017,05,23,19,57,38.60
2017,05,23,19,58,24.20
2017,05,23,19,59,17.70
2017,05,23,20,00,19.30
2017,05,23,20,01,14.50
2017,05,23,20,02,17.70
2017,05,23,20,03,11.30
2017,05,23,20,04,16.10
2017,05,23,20,05,22.50
2017,05,23,20,06,9.60
2017,05,23,20,07,17.70
2017,05,23,20,08,37.00
2017,05,23,20,09,27.40
2017,05,23,20,10,27.40
2017,05,23,20,11,19.30
2017,05,23,20,12,9.60
2017,05,23,20,13,30.60
2017,05,23,20,14,22.50
2017,05,23,20,15,19.30
2017,05,23,20,16,35.40
2017,05,23,20,17,37.00
2017,05,23,20,18,29.00
2017,05,23,20,19,30.60
2017,05,23,20,20,24.20
2017,05,23,20,21,30.60
2017,05,23,20,22,33.80
2017,05,23,20,23,35.40
2017,05,23,20,24,17.70
2017,05,23,20,25,22.50
2017,05,23,20,26,27.40
2017,05,23,20,27,24.20
2017,05,23,20,28,27.40
2017,05,23,20,29,37.00
2017,05,23,20,30,25.70
2017,05,23,20,31,24.20
2017,05,23,20,32,32.20
2017,05,23,20,33,41.80
2017,05,23,20,34,43.50
2017,05,23,20,35,33.80
2017,05,23,20,36,41.80
2017,05,23,20,37,38.60
2017,05,23,20,38,32.20
2017,05,23,20,39,25.70
2017,05,23,20,40,32.20
2017,05,23,20,41,35.40
2017,05,23,20,42,25.70
2017,05,23,20,43,38.60
2017,05,23,20,44,37.00
2017,05,23,20,45,22.50
2017,05,23,20,46,33.80
2017,05,23,20,47,37.00
2017,05,23,20,48,45.10
2017,05,23,20,49,40.20
2017,05,23,20,50,38.60
2017,05,23,20,51,22.50
2017,05,23,20,52,38.60
2017,05,23,20,53,37.00
2017,05,23,20,54,40.20
2017,05,23,20,55,46.70
2017,05,23,20,56,41.80
2017,05,23,20,57,35.40
2017,05,23,20,58,33.80
2017,05,23,20,59,29.00
2017,05,23,21,00,35.40
2017,05,23,21,01,35.40
2017,05,23,21,02,22.50
2017,05,23,21,03,29.00
2017,05,23,21,04,32.20
2017,05,23,21,05,29.00
2017,05,23,21,06,19.30
2017,05,23,21,07,30.60
2017,05,23,21,08,25.70
2017,05,23,21,09,32.20
2017,05,23,21,10,27.40
2017,05,23,21,11,35.40
2017,05,23,21,12,24.20
2017,05,23,21,13,16.10
2017,05,23,21,14,32.20
2017,05,23,21,15,32.20
2017,05,23,21,16,27.40
2017,05,23,21,17,22.50
2017,05,23,21,18,24.20
2017,05,23,21,19,17.70
2017,05,23,21,20,16.10
2017,05,23,21,21,16.10
2017,05,23,21,22,8.10
2017,05,23,21,23,11.30
2017,05,23,21,24,6.40
2017,05,23,21,25,3.20
2017,05,23,21,26,6.40
2017,05,23,21,27,16.10
2017,05,23,21,28,17.70
2017,05,23,21,29,3.20
2017,05,23,21,30,11.30
2017,05,23,21,31,11.30
2017,05,23,21,32,9.60
2017,05,23,21,33,8.10
2017,05,23,21,34,8.10
2017,05,23,21,35,8.10
2017,05,23,21,36,9.60
2017,05,23,21,37,8.10
2017,05,23,21,38,9.60
2017,05,23,21,39,3.20
2017,05,23,21,40,11.30
2017,05,23,21,41,17.70
2017,05,23,21,42,16.10
2017,05,23,21,43,11.30
2017,05,23,21,44,9.60
2017,05,23,21,45,8.10
2017,05,23,21,46,9.60
2017,05,23,21,47,4.80
2017,05,23,21,48,6.40
2017,05,23,21,49,1.60
2017,05,23,21,50,16.10
2017,05,23,21,51,4.80
2017,05,23,21,52,4.80
2017,05,23,21,53,6.40
2017,05,23,21,54,4.80
2017,05,23,21,55,17.70
2017,05,23,21,56,9.60
2017,05,23,21,57,4.80
2017,05,23,21,58,4.80
2017,05,23,21,59,8.10
2017,05,23,22,00,3.20
2017,05,23,22,01,8.10
2017,05,23,22,02,6.40
2017,05,23,22,03,9.60
2017,05,23,22,04,3.20
2017,05,23,22,05,3.20
2017,05,23,22,06,9.60
2017,05,23,22,07,1.60
2017,05,23,22,08,3.20
2017,05,23,22,09,4.80
2017,05,23,22,10,16.10
2017,05,23,22,11,11.30
2017,05,23,22,12,17.70
2017,05,23,22,13,11.30
2017,05,23,22,14,16.10
2017,05,23,22,15,9.60
2017,05,23,22,16,6.40
2017,05,23,22,17,8.10
2017,05,23,22,18,14.50
2017,05,23,22,19,8.10
2017,05,23,22,20,6.40
2017,05,23,22,21,9.60
2017,05,23,22,22,4.80
2017,05,23,22,23,4.80
2017,05,23,22,24,4.80
2017,05,23,22,25,8.10
2017,05,23,22,26,6.40
2017,05,23,22,27,6.40
2017,05,23,22,28,4.80
2017,05,23,22,29,8.10
2017,05,23,22,30,6.40
2017,05,23,22,31,8.10
2017,05,23,22,32,6.40
2017,05,23,22,33,11.30
2017,05,23,22,34,16.10
2017,05,23,22,35,11.30
2017,05,23,22,36,11.30
2017,05,23,22,37,9.60
2017,05,23,22,38,9.60
2017,05,23,22,39,9.60
2017,05,23,22,40,8.10
2017,05,23,22,41,6.40
2017,05,23,22,42,8.10
2017,05,23,22,43,4.80
2017,05,23,22,47,6.40
2017,05,23,22,48,6.40
2017,05,23,22,49,30.60
2017,05,23,22,50,9.60
2017,05,23,22,51,17.70
2017,05,23,22,52,22.50
2017,05,23,22,53,20.90
2017,05,23,22,54,14.50
2017,05,23,22,55,16.10
2017,05,23,22,56,16.10
2017,05,23,22,57,9.60
2017,05,23,22,58,6.40
2017,05,23,22,59,3.20
2017,05,23,23,00,8.10
2017,05,23,23,01,12.90
2017,05,23,23,02,6.40
2017,05,23,23,03,4.80
2017,05,23,23,04,11.30
2017,05,23,23,05,8.10
2017,05,23,23,06,11.30
2017,05,23,23,07,9.60
2017,05,23,23,08,19.30
2017,05,23,23,09,12.90
2017,05,23,23,10,3.20
2017,05,23,23,11,3.20
2017,05,23,23,12,6.40
2017,05,23,23,13,9.60
2017,05,23,23,14,8.10
2017,05,23,23,15,16.10
2017,05,23,23,16,16.10
2017,05,23,23,17,3.20
2017,05,23,23,18,6.40
2017,05,23,23,19,1.60
2017,05,23,23,20,4.80
2017,05,23,23,21,9.60
2017,05,23,23,22,6.40
2017,05,23,23,23,9.60
2017,05,23,23,24,11.30
2017,05,23,23,25,6.40
2017,05,23,23,26,6.40
2017,05,23,23,27,11.30
2017,05,23,23,28,8.10
2017,05,23,23,29,22.50
2017,05,23,23,30,8.10
2017,05,23,23,31,6.40
2017,05,23,23,32,11.30
2017,05,23,23,33,8.10
2017,05,23,23,36,8.10
2017,05,23,23,37,11.30
2017,05,23,23,38,11.30
2017,05,23,23,39,9.60
2017,05,23,23,40,12.90
2017,05,23,23,41,4.80
2017,05,23,23,42,8.10
2017,05,23,23,43,4.80
2017,05,23,23,44,1.60
2017,05,23,23,45,8.10
2017,05,23,23,46,4.80
2017,05,23,23,47,9.60
2017,05,23,23,48,3.20
2017,05,23,23,49,6.40
2017,05,23,23,50,20.90
2017,05,23,23,51,17.70
2017,05,23,23,52,8.10
2017,05,23,23,53,17.70
2017,05,23,23,54,17.70
2017,05,23,23,55,14.50
2017,05,23,23,56,6.40
2017,05,23,23,57,6.40
2017,05,23,23,58,22.50
2017,05,23,23,59,24.20
